CZ-4C DEB, 40114

Orbit data source: Space-Track

CZ-4C DEB, 40114 is space debris in LEO originally from a launch on Sat, 09 Aug 2014 UTC launched from the Jiuquan Satellite Launch Center, China (JSC). Debris objects in space refer to the collection of defunct objects orbiting the Earth. Examples of debris include non-operational satellites, rocket bodies, and fragments generated from explosions, collisions, or faulty payload assembly.

Loading next visibility...
CZ-4C DEB details
Identifier
40114, 2014-047F
Orbit
LEO
Last TLE update9 hours ago
Origin
Flag of CNPLA GAD (CN / PRC)
ManufacturerCAST
MissionSpacecraft
Bus & MotorUnknown
MassUnknown
Launch date (UTC)
2014-08-09 (10 years ago)
Launch vehicleUnknown
Launch site
Jiuquan Satellite Launch Center, China (JSC)
Object type
Payload
Rocket body
Debris
Shape & HBRUnknown
Radar Cross Section6.100 m², Large (>1 m²)

Expand to show TLE details & history

TLE from 9 hours ago
0 CZ-4C DEB
1 40114U 14047F   24361.41947290  .00000456  00000-0  65839-3 0  9997
2 40114  63.3861 350.3824 0343748  12.4934 348.4347 13.44224264509577
Epoch: 2024-12-26T10:04Z
Definitive object data (Epoch: 2024-12-26T10:04:02.458Z)
Latitude-0.0001°
Longitude103.97297°
Altitude844.075 km
Speed7.555 km/s
True Right ascension23h 21m 31s
True Declination0° 00' 00"
Sunlit
Object was in daylight at TLE epoch
Visualization TLE readout
Latitude-35.48534°
Longitude82.22299°
Altitude944.786 km
Speed7.458 km/s
Apparent Right ascension01h 20m 40s
Apparent Declination-58° 01' 47"
Sunlit
Object is in daylight
Visualization observer readout
Local Sidereal Time18:10:53
Azimuth137.373° SSE
Elevation-41.765°
Doppler factor1
Orbital elements
Apogee altitude1,349.213 km
Perigee altitude835.616 km
Semi-major axis7,470.551 km
Eccentricity0.0343748
Inclination63.3861°
RAAN350.3824°
Arg. of periapsis12.4934°
True anomaly347.61037°
Mean anomaly348.4347°
Eccentric anomaly348.02609°
Mean motion3.36135 °/min
BSTAR0.00065839
Orbital period107.1 mins
Loading maneuver chart data...
Loading historical data...
Loading historical data...
Loading historical data...
Loading historical data...
Loading historical data...
Loading historical data...
Loading historical data...

CZ-4C DEB Visibility forecast

Observer location: undefined°, undefined

Span
Click to sort rows by Start time (UTC) header in descending order
Start Az.
Max El. time (UTC)
Max El. Az.
Max El.
End time (UTC)
End Az.
9 mins2024-12-27 00:28:20.314Z169.215° S2024-12-27 00:32:20.314Z112.617° SE28.131°2024-12-27 00:37:20.314Z52.495° ENE
9 mins2024-12-27 02:19:20.314Z255.702° W2024-12-27 02:22:20.314Z304.335° NW32.509°2024-12-27 02:28:20.314Z22.228° NNE
9 mins2024-12-27 07:59:20.314Z356.968° N2024-12-27 08:03:20.314Z37.725° NE20.24°2024-12-27 08:08:20.314Z81.191° E
13 mins2024-12-27 09:49:20.314Z330.064° NNW2024-12-27 09:55:20.314Z91.595° ESE44.059°2024-12-27 10:02:20.314Z141.688° SSE
9 mins2024-12-27 11:41:20.314Z286.793° WNW2024-12-27 11:45:20.314Z247.72° W21.397°2024-12-27 11:50:20.314Z206.245° SW
|